EST,Max TemperatureF,Mean TemperatureF,Min TemperatureF,Max Dew PointF,MeanDew PointF,Min DewpointF,Max Humidity, Mean Humidity, Min Humidity, Max Sea Level PressureIn, Mean Sea Level PressureIn, Min Sea Level PressureIn, Max VisibilityMiles, Mean VisibilityMiles, Min VisibilityMiles, Max Wind SpeedMPH, Mean Wind SpeedMPH, Max Gust SpeedMPH,PrecipitationIn, CloudCover, Events, WindDirDegrees
2012-12-1,62,46,30,41,36,28,100,75,39,30.45,30.39,30.35,10,10,7,7,1,,0.00,1,,178
2012-12-2,68,52,35,48,42,36,100,79,46,30.42,30.35,30.27,10,9,7,17,2,23,0.00,1,,220
2012-12-3,71,56,42,50,46,41,100,76,46,30.36,30.31,30.27,10,10,10,9,1,,0.00,3,,185
2012-12-4,69,54,39,48,45,39,100,73,40,30.37,30.28,30.20,10,9,2,14,2,23,0.00,1,,225
2012-12-5,60,48,33,54,40,27,94,67,36,30.27,30.22,30.16,10,10,7,8,2,,0.01,4,Rain,335
2012-12-6,46,38,30,37,32,23,93,76,57,30.37,30.30,30.26,10,10,10,6,1,,0.00,6,Rain,55
2012-12-7,48,44,41,45,41,36,100,89,81,30.26,30.14,30.07,10,8,2,5,0,,0.00,8,Rain,112
2012-12-8,64,54,44,50,46,45,100,86,59,30.10,30.05,30.00,10,7,2,7,2,,0.00,4,,189
2012-12-9,62,53,44,55,50,45,100,95,77,30.17,30.10,30.03,10,7,0,5,1,,0.00,7,Fog,144
2012-12-10,60,56,51,55,55,52,100,97,82,30.02,29.83,29.73,10,7,1,10,2,17,0.16,7,Rain,225
2012-12-11,55,45,33,54,34,30,94,68,50,30.20,30.01,29.76,10,10,10,9,4,,0.00,3,,328
2012-12-12,42,38,33,32,31,30,93,75,61,30.38,30.31,30.21,10,10,7,12,2,17,0.00,5,,55
2012-12-13,50,40,30,30,24,16,81,59,28,30.45,30.39,30.34,10,10,10,9,3,,0.00,3,,65
2012-12-14,57,40,23,30,26,19,93,65,33,30.40,30.34,30.26,10,10,10,6,0,,0.00,0,,208
2012-12-15,57,44,32,37,32,30,100,68,38,30.29,30.21,30.11,10,10,10,8,1,,0.00,2,Rain,178
2012-12-16,46,44,41,46,43,37,100,96,76,30.11,30.03,29.96,10,5,2,6,1,,0.50,8,Rain-Thunderstorm,243
2012-12-17,51,48,46,50,49,46,100,100,94,29.93,29.81,29.69,10,6,0,7,2,,0.05,8,Fog-Rain-Thunderstorm,239
2012-12-18,53,42,32,50,36,28,100,72,41,29.96,29.83,29.70,10,9,0,15,4,23,0.01,3,Fog,284
2012-12-19,62,47,32,37,31,25,93,55,29,30.16,30.05,29.93,10,10,10,8,2,,0.00,0,,246
2012-12-20,42,38,33,41,35,32,100,87,70,30.17,29.95,29.57,10,7,0,13,3,22,0.72,5,Fog-Rain,53
2012-12-21,39,36,32,30,24,19,87,67,56,29.91,29.74,29.62,10,10,10,17,12,31,0.00,8,,256
2012-12-22,50,40,30,21,14,5,60,43,17,30.15,30.05,29.90,10,10,10,22,12,34,0.00,1,,306
2012-12-23,51,38,26,30,21,12,75,52,30,30.16,30.10,30.03,10,10,10,9,2,,0.00,2,,275
2012-12-24,42,38,35,41,38,30,100,94,61,30.05,29.98,29.92,10,4,0,5,0,,0.66,8,Fog-Rain,29
2012-12-25,46,40,33,43,39,34,100,96,81,30.14,30.07,29.97,10,5,0,7,1,,0.03,7,Fog-Rain,55
2012-12-26,42,38,35,43,35,28,100,94,75,30.06,29.73,29.53,10,8,2,18,8,28,1.36,8,Rain-Thunderstorm,51
2012-12-27,44,36,28,30,27,27,93,71,53,30.12,29.95,29.73,10,10,10,20,9,32,0.00,2,,316
2012-12-28,39,31,23,32,28,23,100,85,65,30.19,30.10,30.02,10,10,5,7,0,,0.00,4,Rain-Snow,102
2012-12-29,46,39,32,37,30,19,100,81,56,30.05,29.87,29.74,10,6,0,15,4,28,0.16,8,Fog-Rain-Snow,300
2012-12-30,44,36,28,25,18,14,75,52,31,30.42,30.29,30.06,10,10,7,16,7,30,0.00,2,,289
2012-12-31,44,34,24,32,24,19,93,66,43,30.39,30.28,30.12,10,10,10,6,1,,0.00,2,,241